Location: Township of Marena
(38.1747°N, 99.6798°W)
Time: 12:04:26
(UTC+00:00)

Cosmos 2082 - Pass Details

Date: 26 October 2020
Orbit: 832 x 857 km, 71.0° (Epoch: 24 November)

Event Time Altitude Azimuth Distance (km) Brightness Sun altitude
Rises 01:57:13 0° 340° (NNW) 3,433 7.2 -26.2°
Reaches altitude 10° 01:59:42 10° 343° (NNW) 2,495 6.4 -26.7°
Enters shadow 02:04:15 53° 13° (NNE) 1,047 4.0 -27.6°
